Temp
11 11 11 11 10 10 10 10 10 9 9 9 9 9 9 9 9 8 8 8 7 7 7 7 7 7 7 7 7 7 7 7 7 6 6 5 5 4 4 3 3 3 3 2 2 2 2 1 1 1 1 1 1 1 1 0 -0 -1 -1 -1 -1 -1 -2 -2 -2 -2 -2 -3 -3
11 11 11 10 10 10 10 10 9 9 9 9 9 9 9 9 9 9 9 8 7 7 7 7 7 7 7 7 7 7 6 6 6 6 6 5 4 4 3 3 3 3 2 2 2 2 1 1 1 1 1 1 1 0 0 -0 -0 -1 -1 -1 -2 -2 -2 -2 -2 -2 -3 -3 -3
11 11 11 10 10 10 10 10 10 10 10 10 10 10 10 10 10 10 9 8 7 7 7 7 7 7 7 7 7 6 6 6 6 6 5 5 4 4 3 3 3 2 2 2 1 1 1 1 1 1 1 0 0 0 -0 -1 -1 -1 -1 -2 -2 -2 -2 -2 -3 -3 -3 -3 -3
11 11 11 10 10 10 10 10 10 10 10 10 10 10 10 10 10 10 9 9 8 7 7 7 7 7 7 7 6 6 6 6 6 5 5 4 4 3 3 3 2 2 2 2 1 1 1 1 0 0 0 0 -0 -0 -1 -1 -1 -1 -2 -2 -2 -2 -3 -3 -3 -3 -3 -3 -3
11 11 11 11 10 10 10 10 10 10 10 10 10 10 10 10 10 10 9 9 8 8 7 7 7 7 7 6 6 6 6 6 5 5 4 4 3 3 3 2 2 2 2 1 1 1 0 0 0 0 -0 -0 -0 -1 -1 -1 -2 -2 -2 -2 -2 -3 -3 -3 -3 -3 -3 -3 -3
11 11 11 11 10 10 10 10 10 10 10 10 10 10 9 9 9 9 9 9 8 8 8 7 7 7 6 6 6 6 6 5 5 5 4 4 3 3 2 2 2 2 1 1 1 0 0 0 -0 -0 -0 -1 -1 -1 -1 -2 -2 -2 -2 -2 -3 -3 -3 -3 -3 -3 -3 -3 -3
11 11 11 10 10 10 10 10 10 10 10 10 10 10 9 9 9 9 9 9 8 8 8 7 7 7 6 6 6 6 6 5 5 4 4 3 3 3 2 2 2 1 1 1 0 0 0 -0 -0 -0 -1 -1 -1 -1 -2 -2 -2 -2 -2 -2 -3 -3 -3 -3 -3 -3 -3 -3 -3
11 11 11 11 10 10 10 10 10 10 10 10 10 9 9 9 9 9 9 9 8 8 8 7 7 6 6 6 6 6 5 5 5 4 3 3 3 2 2 2 2 1 1 1 0 0 -0 -0 -0 -1 -1 -1 -1 -2 -2 -2 -2 -2 -2 -3 -3 -3 -3 -3 -3 -3 -3 -3 -3
11 11 11 10 10 10 10 10 10 10 10 10 10 9 9 9 8 8 8 8 8 8 8 7 7 6 6 6 6 5 5 5 4 4 3 3 2 2 2 2 1 1 1 0 0 0 0 -0 -0 -1 -1 -1 -1 -2 -2 -2 -2 -2 -2 -3 -3 -3 -3 -3 -3 -3 -3 -3 -3
11 11 11 10 10 10 10 10 10 10 10 10 9 9 9 8 8 8 8 8 8 8 8 7 7 6 6 6 6 5 5 4 4 3 3 3 2 2 2 1 1 1 1 0 0 0 0 -0 -0 -0 -1 -1 -1 -2 -2 -2 -2 -2 -2 -3 -3 -3 -3 -3 -3 -3 -3 -3 -3
11 11 11 11 10 10 10 10 10 10 9 9 9 9 8 8 8 8 8 8 8 8 7 7 7 6 6 6 5 5 4 4 3 3 3 2 2 2 1 1 1 1 0 0 0 0 0 -0 -0 -0 -1 -1 -1 -1 -2 -2 -2 -2 -2 -2 -2 -3 -3 -3 -3 -3 -3 -3 -3
11 11 11 10 10 10 10 10 10 9 9 9 9 8 8 8 8 8 8 8 8 7 7 7 6 6 6 5 5 4 4 4 3 3 2 2 2 1 1 1 1 1 0 0 0 0 -0 -0 -0 -0 -1 -1 -1 -1 -2 -2 -2 -2 -2 -2 -2 -3 -3 -3 -3 -3 -3 -3 -3
11 11 10 10 10 10 10 10 10 9 9 9 9 8 8 8 8 8 7 7 7 7 7 6 6 6 5 5 5 4 4 3 3 3 2 2 2 1 1 1 1 1 0 0 0 -0 -0 -0 -0 -0 -1 -1 -1 -1 -2 -2 -2 -2 -2 -2 -2 -3 -3 -3 -3 -3 -3 -3 -3
11 10 10 10 10 10 10 10 9 9 9 9 9 8 8 8 8 7 7 7 7 7 6 6 6 5 5 5 4 4 4 3 3 3 2 2 1 1 1 1 1 0 0 0 -0 -0 -0 -0 -0 -1 -1 -1 -1 -1 -2 -2 -2 -2 -2 -2 -2 -3 -3 -3 -3 -3 -3 -3 -4
11 10 10 10 10 10 10 10 9 9 9 9 9 9 8 8 8 7 7 7 7 6 6 6 5 5 5 4 4 4 4 3 3 2 2 2 1 1 1 1 1 0 0 0 -0 -0 -0 -0 -1 -1 -1 -1 -1 -1 -1 -2 -2 -2 -2 -2 -2 -3 -3 -3 -3 -3 -3 -3 -4
11 10 10 10 10 10 10 10 9 9 9 9 9 9 8 8 8 8 7 7 7 6 6 5 5 5 4 4 4 4 3 3 3 2 2 2 1 1 1 1 1 0 0 0 -0 -0 -0 -1 -1 -1 -1 -1 -1 -1 -1 -2 -2 -2 -2 -2 -2 -3 -3 -3 -3 -3 -3 -4 -4
10 10 10 10 10 10 10 10 9 9 9 9 9 9 8 8 8 8 7 7 7 6 6 5 5 4 4 4 4 3 3 3 2 2 2 2 1 1 1 1 1 0 0 0 -0 -0 -0 -1 -1 -1 -1 -1 -1 -1 -1 -2 -2 -2 -2 -2 -2 -3 -3 -3 -3 -3 -3 -4 -4
10 10 10 10 10 10 10 10 9 9 9 9 9 9 8 8 8 8 7 7 7 6 6 5 4 4 4 4 3 3 3 3 2 2 2 2 2 1 1 1 1 0 0 -0 -0 -0 -1 -1 -1 -1 -1 -1 -1 -1 -1 -2 -2 -2 -2 -2 -3 -3 -3 -3 -3 -3 -3 -4 -4
10 10 10 10 10 10 10 9 9 9 9 9 9 8 8 8 8 7 7 7 6 6 5 5 4 4 4 4 3 3 3 3 2 2 2 2 2 1 1 1 1 0 0 -0 -0 -0 -1 -1 -1 -1 -1 -1 -1 -1 -2 -2 -2 -2 -2 -2 -3 -3 -3 -3 -3 -3 -4 -4 -4
10 10 10 10 10 10 9 9 9 9 9 9 8 8 8 8 7 7 7 7 6 6 5 5 4 4 4 3 3 3 3 2 2 2 2 2 1 1 1 1 0 0 0 -0 -0 -0 -1 -1 -1 -1 -1 -1 -1 -2 -2 -2 -2 -2 -2 -2 -3 -3 -3 -3 -3 -3 -4 -4 -4
10 10 10 10 10 10 9 9 8 8 8 8 8 8 7 7 7 7 7 6 6 5 5 4 4 4 3 3 3 3 2 2 2 2 2 2 1 1 1 1 0 0 -0 -0 -0 -0 -1 -1 -1 -1 -1 -1 -1 -2 -2 -2 -2 -2 -2 -2 -3 -3 -3 -3 -3 -3 -4 -4 -4
10 10 9 9 9 9 9 9 8 7 7 7 7 7 7 7 7 7 6 6 6 5 5 4 4 4 3 3 3 2 2 2 2 2 2 2 1 1 1 1 0 0 -0 -0 -0 -0 -0 -1 -1 -1 -1 -1 -1 -2 -2 -2 -2 -2 -2 -2 -3 -3 -3 -3 -3 -3 -4 -4 -4
10 9 9 9 9 9 9 9 8 8 8 7 7 7 7 6 6 6 6 6 5 5 5 4 4 4 3 3 3 2 2 2 2 1 1 1 1 1 1 1 0 0 -0 -0 -0 -0 -0 -1 -1 -1 -1 -1 -1 -2 -2 -2 -2 -2 -2 -2 -3 -3 -3 -3 -3 -3 -4 -4 -4
9 9 9 9 9 9 8 8 8 8 8 8 7 7 6 6 6 6 6 6 5 5 4 4 4 3 3 3 3 2 2 2 2 1 1 1 1 1 1 1 0 0 -0 -0 -0 -0 -0 -1 -1 -1 -1 -1 -1 -1 -2 -2 -2 -2 -2 -2 -3 -3 -3 -3 -3 -3 -4 -4 -4
9 9 9 9 9 8 8 8 8 8 8 7 7 6 6 6 6 6 6 5 5 5 4 4 4 3 3 3 3 2 2 2 2 1 1 1 1 1 1 0 0 0 -0 -0 -0 -0 -0 -1 -1 -1 -1 -1 -1 -2 -2 -2 -2 -2 -2 -2 -3 -3 -3 -3 -3 -3 -4 -4 -4
9 9 9 9 8 8 8 8 8 7 8 7 7 6 6 5 6 6 6 5 5 4 4 4 3 3 3 3 2 2 2 2 2 1 1 1 1 1 1 0 0 0 -0 -0 -0 -0 -1 -1 -1 -1 -1 -1 -1 -2 -2 -2 -2 -2 -2 -2 -3 -3 -3 -3 -3 -3 -4 -4 -4
8 8 8 8 8 8 8 8 7 7 7 7 7 6 6 6 6 6 5 5 5 4 4 4 3 3 3 3 2 2 2 2 2 1 1 1 1 1 1 0 0 0 -0 -0 -0 -0 -1 -1 -1 -1 -1 -1 -1 -2 -2 -2 -2 -2 -2 -2 -3 -3 -3 -3 -3 -4 -4 -4 -4
8 8 8 8 8 8 8 7 7 7 7 7 7 6 6 6 6 5 5 5 4 4 4 3 3 3 3 2 2 2 2 2 2 1 1 1 1 1 1 0 0 0 -0 -0 -0 -0 -1 -1 -1 -1 -1 -1 -1 -2 -2 -2 -2 -2 -2 -2 -3 -3 -3 -3 -3 -4 -4 -4 -4
8 8 8 8 8 8 8 7 7 8 8 7 6 6 5 5 5 5 5 4 4 4 3 3 3 3 3 2 2 2 2 2 1 1 1 1 1 1 0 0 0 -0 -0 -0 -0 -0 -1 -1 -1 -1 -1 -1 -1 -2 -2 -2 -2 -2 -2 -2 -3 -3 -3 -3 -3 -4 -4 -4 -4
8 8 8 8 8 8 8 8 8 8 8 7 6 6 5 5 5 5 5 4 4 4 3 3 3 3 2 2 2 2 2 2 1 1 1 1 1 1 0 0 0 -0 -0 -0 -0 -1 -1 -1 -1 -1 -1 -1 -1 -2 -2 -2 -2 -2 -2 -2 -3 -3 -3 -3 -4 -4 -4 -4 -4
8 8 8 8 8 8 8 8 8 8 7 7 6 6 5 5 5 5 4 4 4 3 3 3 3 2 2 2 2 2 2 1 1 1 1 1 1 1 0 0 0 -0 -0 -0 -0 -1 -1 -1 -1 -1 -1 -1 -1 -2 -2 -2 -2 -2 -2 -2 -3 -3 -3 -3 -4 -4 -4 -4 -4
8 8 8 8 8 8 8 8 8 8 7 6 6 5 5 5 5 5 4 4 4 3 3 3 2 2 2 2 2 2 2 1 1 1 1 1 1 0 0 0 -0 -0 -0 -0 -0 -0 -1 -1 -1 -1 -1 -1 -1 -2 -2 -2 -2 -2 -2 -2 -3 -3 -3 -3 -4 -4 -4 -4 -4
8 8 8 8 8 8 8 8 8 8 7 6 6 5 5 5 5 4 4 4 3 3 3 2 2 2 2 2 2 2 2 1 1 1 1 1 1 0 0 0 -0 -0 -0 -0 -0 -1 -1 -1 -1 -1 -1 -1 -1 -2 -2 -2 -2 -2 -2 -2 -3 -3 -3 -3 -4 -4 -4 -4 -5
8 8 8 8 8 8 8 8 7 7 6 6 5 5 5 5 4 4 4 3 3 3 3 2 2 2 2 2 2 2 1 1 1 1 1 1 0 0 0 -0 -0 -0 -0 -0 -0 -1 -1 -1 -1 -1 -1 -1 -1 -2 -2 -2 -2 -2 -2 -2 -3 -3 -3 -3 -4 -4 -4 -4 -5
8 8 8 7 7 8 8 7 7 6 6 5 5 5 5 5 4 4 4 3 3 3 2 2 2 2 2 2 2 2 1 1 1 1 1 1 0 0 0 -0 -0 -0 -0 -0 -0 -1 -1 -1 -1 -1 -1 -1 -2 -2 -2 -2 -2 -2 -2 -3 -3 -3 -3 -3 -4 -4 -4 -4 -5
8 8 7 7 7 7 7 7 6 6 5 5 5 5 5 4 4 4 3 3 2 2 2 2 2 2 2 2 2 1 1 1 1 1 1 0 0 0 -0 -0 -0 -0 -0 -0 -0 -1 -1 -1 -1 -1 -1 -1 -2 -2 -2 -2 -2 -2 -2 -3 -3 -3 -3 -3 -4 -4 -4 -4 -5
8 7 7 7 7 7 7 6 6 6 5 5 5 5 5 4 4 3 3 2 2 2 2 2 2 2 2 2 1 1 1 1 1 1 0 0 0 0 -0 -0 -0 -0 -0 -0 -0 -1 -1 -1 -1 -1 -1 -2 -2 -2 -2 -2 -2 -2 -2 -3 -3 -3 -3 -3 -4 -4 -4 -4 -5
8 7 7 7 7 7 6 6 6 5 5 5 5 5 4 4 3 3 2 2 2 2 2 2 2 2 2 1 1 1 1 1 1 0 0 0 0 0 0 0 0 0 -0 -0 -0 -1 -1 -1 -1 -1 -1 -2 -2 -2 -2 -2 -2 -2 -3 -3 -3 -3 -3 -3 -4 -4 -4 -4 -5
7 7 7 7 7 6 6 6 6 5 5 5 5 4 4 3 3 3 2 2 2 2 2 2 2 2 1 1 1 1 1 1 1 0 0 0 0 0 0 0 0 0 -0 -0 -1 -1 -1 -1 -1 -1 -2 -2 -2 -2 -2 -2 -2 -3 -3 -3 -3 -3 -3 -4 -4 -4 -4 -4 -5
7 7 7 7 6 6 6 6 6 5 5 5 5 4 4 3 3 2 2 2 2 2 2 2 2 1 1 1 1 1 1 1 0 0 0 0 0 0 0 0 0 -0 -0 -0 -1 -1 -1 -1 -1 -2 -2 -2 -2 -2 -2 -2 -3 -3 -3 -3 -3 -3 -3 -4 -4 -4 -4 -4 -5
7 7 7 6 6 6 6 6 5 5 5 5 4 4 3 3 3 2 2 2 2 2 2 2 1 1 1 1 1 1 1 1 0 0 0 0 0 0 0 0 0 -0 -0 -0 -1 -1 -1 -1 -1 -2 -2 -2 -2 -2 -2 -3 -3 -3 -3 -3 -3 -3 -4 -4 -4 -4 -4 -5 -5
Height
1539 1539 1540 1541 1542 1543 1544 1545 1546 1546 1546 1547 1547 1547 1547 1547 1547 1547 1548 1548 1548 1548 1548 1549 1549 1549 1549 1550 1550 1549 1549 1548 1548 1548 1548 1548 1547 1547 1546 1546 1546 1545 1545 1544 1544 1543 1543 1542 1542 1542 1542 1541 1541 1541 1541 1541 1540 1540 1540 1540 1539 1539 1539 1539 1538 1538 1538 1538 1537
1537 1538 1539 1540 1541 1542 1543 1544 1544 1545 1545 1545 1545 1545 1545 1545 1545 1546 1546 1546 1546 1547 1547 1547 1548 1548 1548 1548 1548 1548 1548 1547 1547 1547 1546 1546 1546 1546 1545 1545 1544 1544 1544 1543 1543 1543 1542 1542 1541 1541 1541 1541 1541 1540 1540 1540 1540 1539 1539 1539 1539 1538 1538 1538 1538 1537 1537 1537 1537
1536 1537 1538 1539 1540 1541 1541 1542 1542 1543 1543 1543 1543 1543 1543 1542 1543 1543 1543 1544 1545 1545 1546 1546 1547 1547 1547 1547 1547 1547 1546 1546 1546 1546 1546 1545 1545 1545 1544 1544 1543 1543 1543 1542 1542 1542 1541 1541 1541 1540 1540 1540 1540 1539 1539 1539 1539 1539 1538 1538 1538 1538 1537 1537 1537 1537 1536 1536 1536
1534 1535 1536 1537 1538 1539 1539 1540 1540 1541 1541 1541 1542 1541 1541 1541 1540 1541 1541 1543 1544 1544 1545 1545 1546 1546 1546 1546 1546 1546 1546 1545 1545 1545 1544 1544 1544 1543 1543 1543 1542 1542 1542 1541 1541 1541 1541 1541 1540 1540 1539 1539 1539 1538 1538 1538 1538 1538 1538 1537 1537 1537 1537 1536 1536 1536 1536 1536 1535
1533 1534 1535 1536 1536 1537 1537 1538 1538 1539 1540 1540 1540 1540 1539 1539 1539 1539 1540 1541 1542 1543 1544 1544 1545 1545 1545 1545 1545 1545 1545 1544 1544 1544 1543 1543 1543 1542 1542 1542 1541 1541 1541 1541 1540 1540 1540 1540 1539 1539 1538 1538 1537 1537 1537 1537 1537 1537 1537 1536 1536 1536 1536 1536 1536 1535 1535 1535 1534
1531 1532 1533 1534 1535 1536 1536 1536 1537 1537 1538 1538 1538 1538 1538 1538 1538 1538 1539 1540 1541 1542 1542 1543 1543 1544 1544 1544 1544 1544 1544 1543 1543 1543 1542 1542 1542 1541 1541 1541 1541 1540 1540 1540 1539 1539 1539 1539 1538 1538 1537 1537 1537 1536 1536 1536 1536 1536 1536 1536 1536 1536 1535 1535 1535 1535 1534 1534 1533
1531 1531 1532 1533 1533 1534 1534 1535 1536 1536 1537 1537 1537 1537 1536 1536 1537 1537 1538 1540 1540 1541 1541 1542 1542 1542 1543 1543 1543 1543 1543 1542 1542 1542 1541 1541 1541 1541 1540 1540 1540 1539 1539 1539 1538 1538 1538 1538 1537 1537 1536 1536 1536 1536 1536 1536 1536 1536 1535 1535 1535 1535 1535 1534 1534 1534 1533 1533 1532
1529 1530 1531 1531 1532 1533 1533 1534 1535 1535 1535 1535 1535 1535 1536 1536 1536 1537 1538 1538 1539 1539 1540 1541 1541 1541 1542 1542 1542 1542 1542 1542 1541 1541 1541 1540 1540 1540 1539 1539 1539 1538 1538 1538 1537 1537 1537 1537 1536 1536 1536 1536 1536 1535 1535 1535 1535 1535 1535 1534 1534 1534 1534 1534 1533 1533 1532 1532 1531
1528 1529 1529 1530 1531 1531 1532 1533 1533 1534 1534 1534 1534 1535 1535 1535 1536 1536 1537 1537 1538 1538 1539 1540 1540 1541 1541 1541 1541 1541 1541 1541 1540 1540 1540 1540 1539 1539 1538 1538 1538 1537 1537 1537 1536 1536 1536 1536 1536 1535 1535 1535 1535 1535 1534 1534 1534 1534 1534 1534 1533 1533 1533 1533 1532 1532 1531 1531 1531
1526 1527 1528 1529 1529 1530 1531 1532 1532 1533 1533 1534 1534 1534 1535 1535 1535 1536 1536 1536 1537 1537 1538 1538 1539 1539 1540 1540 1540 1540 1540 1540 1539 1539 1539 1539 1538 1538 1538 1537 1537 1537 1536 1536 1536 1536 1535 1535 1535 1535 1534 1534 1534 1534 1534 1533 1533 1533 1533 1533 1533 1532 1532 1532 1531 1531 1531 1530 1530
1524 1525 1526 1527 1528 1529 1530 1531 1531 1532 1533 1533 1533 1534 1534 1535 1535 1536 1536 1536 1536 1536 1536 1537 1538 1538 1539 1539 1539 1539 1539 1539 1538 1538 1538 1538 1537 1537 1537 1536 1536 1536 1536 1536 1535 1535 1535 1534 1534 1534 1534 1533 1533 1533 1533 1532 1532 1532 1532 1532 1531 1531 1531 1531 1531 1530 1530 1529 1529
1523 1524 1525 1526 1527 1528 1529 1530 1531 1531 1532 1532 1533 1533 1534 1535 1536 1536 1536 1536 1536 1536 1536 1536 1537 1537 1538 1538 1538 1538 1538 1538 1537 1537 1537 1537 1536 1536 1536 1536 1536 1536 1535 1535 1535 1534 1534 1534 1533 1533 1533 1532 1532 1532 1532 1531 1531 1531 1531 1531 1531 1530 1530 1530 1529 1529 1529 1528 1527
1522 1523 1524 1525 1526 1527 1528 1529 1530 1530 1531 1531 1532 1533 1534 1535 1535 1536 1536 1536 1536 1536 1536 1536 1536 1536 1537 1537 1537 1537 1537 1537 1536 1536 1536 1536 1536 1536 1536 1536 1535 1535 1535 1534 1534 1534 1533 1533 1533 1532 1532 1532 1531 1531 1531 1531 1531 1530 1530 1530 1530 1529 1529 1529 1528 1528 1527 1527 1526
1520 1521 1522 1523 1525 1526 1527 1527 1528 1529 1530 1531 1531 1532 1533 1534 1535 1535 1535 1536 1536 1536 1535 1535 1536 1536 1536 1536 1536 1536 1536 1536 1536 1535 1535 1535 1535 1535 1535 1535 1535 1534 1534 1534 1533 1533 1532 1532 1532 1531 1531 1531 1531 1530 1530 1530 1530 1529 1529 1529 1529 1528 1528 1528 1527 1527 1526 1526 1525
1519 1520 1521 1522 1523 1524 1525 1526 1526 1527 1528 1529 1530 1531 1532 1532 1533 1534 1534 1535 1535 1535 1535 1535 1535 1535 1535 1535 1535 1535 1535 1534 1534 1534 1534 1534 1534 1534 1534 1534 1534 1533 1533 1533 1532 1532 1531 1531 1531 1531 1530 1530 1530 1529 1529 1529 1529 1528 1528 1528 1528 1527 1527 1527 1526 1526 1525 1525 1524
1516 1518 1519 1520 1521 1521 1522 1523 1524 1526 1526 1528 1529 1529 1530 1531 1531 1532 1532 1533 1534 1534 1535 1535 1535 1534 1534 1534 1533 1533 1533 1533 1533 1533 1533 1533 1533 1533 1533 1533 1532 1532 1532 1532 1531 1531 1531 1530 1530 1530 1529 1529 1528 1528 1528 1528 1528 1527 1527 1527 1527 1526 1526 1526 1525 1524 1524 1523 1523
1515 1516 1516 1517 1518 1519 1521 1522 1523 1524 1525 1526 1526 1527 1528 1528 1529 1529 1530 1531 1532 1533 1534 1534 1534 1533 1533 1533 1532 1532 1532 1532 1532 1532 1532 1532 1532 1532 1532 1531 1531 1531 1531 1531 1530 1530 1529 1529 1529 1528 1528 1528 1527 1527 1527 1527 1526 1526 1526 1526 1526 1525 1525 1524 1524 1523 1522 1522 1521
1513 1514 1515 1516 1517 1518 1520 1521 1521 1522 1523 1524 1525 1525 1526 1526 1526 1527 1528 1529 1530 1531 1532 1532 1532 1532 1532 1531 1531 1531 1531 1531 1531 1531 1531 1531 1531 1531 1531 1531 1530 1530 1530 1529 1529 1529 1528 1528 1527 1527 1526 1526 1526 1526 1526 1526 1525 1525 1525 1525 1524 1524 1523 1523 1522 1522 1521 1521 1520
1511 1512 1513 1514 1516 1517 1518 1520 1521 1521 1522 1523 1523 1524 1524 1525 1525 1526 1526 1527 1528 1529 1530 1531 1531 1531 1531 1530 1530 1530 1530 1530 1530 1530 1531 1531 1530 1530 1530 1530 1529 1529 1529 1528 1528 1527 1527 1526 1526 1526 1526 1525 1525 1525 1525 1524 1524 1524 1524 1523 1523 1522 1522 1521 1521 1521 1520 1520 1519
1509 1510 1511 1512 1514 1516 1517 1519 1521 1521 1522 1522 1522 1523 1523 1524 1524 1525 1525 1526 1527 1528 1529 1529 1529 1529 1529 1529 1529 1529 1529 1529 1529 1529 1529 1529 1529 1529 1529 1529 1528 1528 1528 1527 1527 1526 1526 1526 1525 1525 1525 1524 1524 1524 1523 1523 1523 1522 1522 1522 1521 1521 1521 1520 1520 1519 1519 1518 1518
1506 1508 1509 1511 1512 1514 1516 1518 1520 1521 1521 1522 1522 1522 1522 1523 1523 1524 1524 1525 1526 1526 1527 1527 1527 1528 1528 1528 1528 1528 1528 1528 1528 1528 1528 1528 1528 1528 1528 1528 1527 1527 1527 1526 1526 1526 1525 1525 1524 1524 1523 1523 1523 1522 1522 1522 1521 1521 1521 1521 1520 1520 1519 1519 1518 1518 1517 1517 1516
1505 1506 1508 1510 1511 1513 1514 1515 1516 1518 1519 1520 1521 1521 1521 1522 1522 1523 1523 1524 1524 1525 1525 1526 1526 1526 1526 1526 1526 1527 1527 1527 1527 1527 1527 1527 1527 1527 1527 1527 1526 1526 1526 1525 1525 1525 1524 1524 1523 1523 1522 1522 1521 1521 1521 1521 1520 1520 1520 1519 1519 1518 1518 1517 1517 1516 1516 1516 1515
1504 1506 1507 1509 1511 1511 1512 1513 1513 1515 1516 1518 1519 1519 1520 1520 1521 1521 1522 1522 1522 1523 1523 1524 1524 1525 1525 1525 1526 1526 1526 1526 1526 1526 1526 1526 1526 1526 1526 1526 1525 1525 1525 1524 1524 1524 1523 1522 1522 1521 1521 1521 1520 1520 1520 1519 1519 1519 1518 1518 1517 1517 1517 1516 1516 1515 1515 1514 1514
1503 1505 1506 1508 1509 1510 1511 1511 1511 1513 1514 1515 1516 1517 1518 1519 1519 1520 1520 1520 1520 1521 1522 1522 1523 1524 1524 1524 1524 1524 1524 1524 1524 1524 1524 1524 1524 1524 1524 1524 1524 1524 1523 1523 1523 1522 1522 1521 1521 1520 1520 1520 1519 1519 1518 1518 1518 1517 1517 1516 1516 1516 1515 1515 1515 1514 1514 1513 1512
1503 1505 1506 1506 1507 1508 1509 1510 1511 1511 1513 1514 1515 1515 1516 1517 1517 1518 1518 1518 1519 1519 1520 1521 1522 1522 1522 1522 1522 1522 1522 1522 1522 1522 1522 1522 1522 1522 1522 1522 1522 1522 1522 1522 1521 1521 1521 1520 1520 1519 1519 1518 1518 1517 1517 1516 1516 1516 1516 1515 1515 1514 1514 1513 1513 1513 1512 1511 1511
1502 1503 1504 1504 1505 1506 1507 1508 1509 1511 1511 1512 1513 1514 1514 1515 1516 1516 1516 1516 1517 1518 1519 1520 1520 1521 1521 1521 1521 1521 1521 1521 1521 1521 1520 1520 1520 1521 1521 1521 1521 1521 1521 1520 1520 1520 1519 1519 1518 1518 1517 1517 1516 1516 1516 1515 1515 1514 1514 1513 1513 1513 1512 1512 1511 1511 1511 1510 1509
1501 1501 1502 1502 1503 1504 1505 1506 1508 1509 1510 1511 1511 1512 1512 1513 1514 1514 1515 1515 1516 1517 1517 1518 1519 1519 1519 1519 1519 1519 1519 1519 1519 1519 1519 1519 1518 1518 1518 1519 1519 1519 1519 1519 1518 1518 1517 1517 1516 1516 1516 1515 1515 1514 1514 1513 1513 1513 1512 1512 1511 1511 1511 1511 1510 1510 1509 1508 1508
1498 1500 1500 1501 1501 1502 1504 1505 1506 1507 1508 1509 1509 1510 1510 1511 1512 1512 1513 1514 1514 1515 1516 1516 1517 1517 1518 1518 1518 1518 1518 1518 1518 1518 1517 1517 1517 1517 1517 1517 1517 1517 1517 1517 1517 1516 1516 1515 1515 1515 1514 1514 1513 1513 1512 1512 1511 1511 1511 1511 1510 1510 1509 1509 1509 1508 1507 1507 1506
1496 1497 1498 1499 1500 1501 1502 1503 1505 1506 1506 1507 1507 1508 1509 1510 1510 1511 1511 1512 1513 1514 1514 1515 1516 1516 1516 1516 1517 1517 1517 1517 1517 1516 1516 1516 1516 1515 1515 1515 1515 1515 1516 1515 1515 1515 1514 1514 1513 1513 1512 1512 1512 1511 1511 1511 1510 1510 1509 1509 1509 1508 1508 1507 1507 1506 1506 1506 1505
1494 1495 1496 1497 1499 1500 1501 1502 1503 1504 1505 1505 1506 1506 1507 1508 1508 1509 1510 1511 1511 1512 1513 1514 1515 1515 1515 1515 1516 1516 1516 1516 1515 1515 1515 1514 1514 1514 1513 1514 1514 1514 1514 1514 1513 1513 1512 1512 1511 1511 1511 1510 1510 1510 1509 1509 1509 1508 1508 1507 1507 1507 1506 1506 1506 1505 1505 1504 1503
1491 1493 1495 1496 1497 1498 1499 1500 1501 1502 1503 1503 1504 1504 1505 1506 1507 1507 1508 1509 1510 1511 1512 1513 1513 1513 1514 1514 1514 1514 1514 1514 1514 1513 1513 1512 1512 1512 1512 1512 1512 1512 1512 1512 1511 1511 1511 1510 1510 1509 1509 1509 1508 1508 1508 1507 1507 1506 1506 1506 1506 1505 1505 1504 1504 1503 1503 1502 1501
1490 1491 1493 1494 1495 1496 1497 1498 1499 1500 1501 1501 1502 1503 1504 1505 1505 1506 1507 1508 1509 1510 1511 1511 1511 1512 1512 1513 1513 1513 1512 1512 1512 1511 1511 1511 1511 1510 1510 1510 1510 1510 1510 1510 1510 1509 1509 1508 1508 1508 1507 1507 1506 1506 1506 1506 1505 1505 1505 1504 1504 1504 1503 1503 1502 1502 1501 1501 1500
1488 1490 1491 1492 1494 1495 1496 1496 1497 1498 1498 1499 1500 1501 1502 1503 1504 1505 1506 1507 1507 1508 1509 1509 1510 1511 1511 1511 1511 1511 1511 1511 1510 1510 1509 1509 1509 1509 1509 1508 1508 1508 1508 1508 1508 1507 1507 1506 1506 1506 1505 1505 1505 1504 1504 1504 1504 1503 1503 1502 1502 1502 1501 1501 1501 1500 1500 1499 1498
1487 1488 1490 1491 1492 1493 1494 1495 1495 1496 1497 1498 1499 1500 1501 1502 1503 1504 1504 1505 1506 1506 1507 1508 1509 1509 1509 1509 1509 1509 1509 1508 1508 1508 1507 1507 1507 1507 1507 1506 1506 1506 1506 1506 1506 1506 1505 1505 1504 1504 1504 1503 1503 1502 1502 1502 1502 1501 1501 1501 1501 1500 1500 1500 1499 1499 1498 1497 1497
1485 1487 1488 1489 1490 1491 1492 1493 1494 1496 1496 1497 1498 1499 1500 1501 1501 1502 1503 1504 1504 1505 1506 1506 1507 1507 1507 1507 1507 1507 1507 1506 1506 1506 1506 1506 1505 1505 1505 1505 1505 1505 1505 1504 1504 1504 1503 1503 1502 1502 1501 1501 1501 1501 1500 1500 1500 1499 1499 1499 1499 1498 1498 1498 1497 1497 1496 1496 1495
1484 1485 1486 1487 1489 1490 1491 1492 1494 1495 1496 1496 1497 1498 1499 1500 1501 1501 1502 1503 1503 1504 1505 1505 1506 1506 1506 1506 1506 1506 1505 1505 1504 1504 1504 1504 1503 1503 1503 1502 1502 1502 1502 1502 1502 1501 1501 1501 1501 1500 1500 1499 1499 1498 1498 1498 1498 1497 1497 1497 1497 1496 1496 1496 1496 1495 1495 1494 1494
1483 1484 1485 1486 1487 1489 1490 1492 1493 1494 1495 1496 1496 1497 1498 1499 1500 1501 1501 1502 1503 1503 1504 1504 1505 1505 1505 1504 1504 1504 1503 1503 1502 1502 1502 1502 1501 1501 1501 1501 1500 1501 1500 1500 1500 1499 1499 1499 1498 1498 1497 1497 1496 1496 1496 1496 1496 1496 1495 1495 1495 1495 1495 1494 1494 1493 1493 1492 1492
1482 1483 1484 1486 1487 1488 1490 1491 1492 1493 1494 1495 1496 1496 1497 1498 1499 1500 1501 1501 1502 1503 1503 1503 1503 1503 1503 1503 1502 1502 1501 1501 1501 1500 1500 1500 1500 1499 1499 1498 1498 1498 1498 1498 1497 1497 1496 1496 1496 1496 1495 1495 1494 1494 1494 1494 1494 1493 1493 1493 1493 1493 1493 1493 1492 1491 1491 1491 1490
1481 1482 1484 1485 1487 1488 1490 1491 1491 1492 1493 1494 1495 1496 1496 1497 1498 1499 1500 1501 1501 1502 1502 1502 1502 1502 1501 1501 1501 1500 1500 1499 1499 1498 1498 1498 1497 1497 1497 1496 1496 1496 1496 1496 1495 1495 1494 1494 1494 1493 1493 1492 1492 1492 1492 1492 1491 1491 1491 1491 1491 1491 1491 1491 1491 1490 1489 1489 1489
1481 1482 1484 1485 1487 1488 1489 1490 1491 1491 1492 1493 1494 1495 1496 1496 1497 1498 1499 1500 1500 1501 1501 1501 1501 1500 1500 1499 1499 1498 1497 1497 1497 1496 1496 1496 1496 1495 1495 1494 1493 1493 1493 1493 1493 1492 1492 1492 1491 1491 1491 1490 1490 1490 1490 1490 1489 1489 1489 1489 1489 1489 1489 1489 1489 1488 1488 1487 1487
1481 1482 1484 1485 1486 1487 1488 1489 1490 1491 1491 1492 1493 1494 1495 1496 1496 1497 1498 1498 1499 1499 1499 1499 1499 1498 1498 1497 1497 1496 1496 1495 1495 1495 1494 1494 1494 1493 1492 1492 1491 1491 1491 1491 1491 1490 1490 1489 1489 1489 1488 1488 1488 1488 1488 1488 1487 1487 1487 1487 1487 1487 1487 1487 1486 1486 1486 1486 1485
Wind_Speed
25 25 24 23 22 22 21 20 19 19 19 19 18 18 17 15 14 16 21 25 24 23 23 22 21 19 18 16 16 16 18 20 21 23 24 23 23 22 21 21 21 20 19 19 17 16 16 15 15 15 15 16 16 16 16 16 15 14 14 13 13 13 13 13 13 14 15 16 16
26 25 24 23 23 22 22 21 21 21 22 21 21 20 19 19 20 23 26 25 24 23 22 21 19 18 16 15 15 17 18 20 21 22 23 24 23 22 21 20 20 19 18 17 16 15 14 14 15 15 15 16 16 16 16 15 14 13 13 13 13 13 13 13 14 14 15 16 17
26 25 24 24 23 23 24 24 24 24 24 24 23 22 22 23 25 27 27 24 23 22 21 20 18 16 15 15 15 17 19 20 21 22 22 23 23 22 20 19 18 17 16 15 14 14 14 14 14 15 15 16 16 16 15 14 13 13 12 12 12 12 13 13 14 14 16 17 17
26 25 24 24 24 25 26 26 26 26 26 25 24 24 25 26 27 27 26 23 22 21 20 19 17 15 15 15 15 17 19 21 21 21 21 22 21 20 18 17 16 15 14 14 13 13 13 14 15 15 16 16 16 15 14 13 13 12 12 12 12 12 12 13 14 15 16 17 18
26 25 25 25 25 26 27 27 28 27 27 26 25 26 26 26 26 26 24 23 21 20 19 18 16 15 15 15 16 17 19 20 21 21 21 20 19 18 17 15 15 14 13 13 13 13 13 14 15 16 16 16 15 14 13 13 12 12 12 12 12 12 13 13 14 16 17 18 19
26 26 25 26 26 27 28 28 28 28 27 26 26 27 27 27 26 25 24 22 21 20 18 17 16 15 15 15 16 18 19 20 20 20 20 19 18 16 15 14 14 13 13 13 13 13 14 14 15 16 15 15 14 13 12 12 12 12 12 12 12 13 13 14 15 17 18 19 19
27 26 27 27 28 29 29 29 29 28 27 27 27 28 28 27 26 25 23 22 20 19 17 16 16 15 15 15 16 18 19 19 19 19 19 17 16 15 14 13 13 13 13 13 13 13 14 15 15 15 14 14 13 12 12 12 12 12 12 12 13 13 14 15 16 17 18 19 20
27 27 28 28 29 29 30 29 29 28 28 27 28 28 28 27 26 24 23 21 20 18 17 16 15 15 15 15 16 17 18 18 19 18 18 16 15 14 13 13 12 12 12 13 13 14 14 14 14 14 13 13 13 12 12 13 13 12 13 13 13 14 15 16 18 18 19 19 20
28 28 29 29 29 30 30 29 29 28 28 28 28 27 27 26 25 23 22 20 18 16 16 16 15 15 14 15 16 17 18 18 18 17 16 15 14 13 12 12 12 12 12 13 13 13 14 14 14 14 13 13 13 13 13 13 13 13 13 14 14 15 16 17 18 19 19 19 19
29 29 30 30 30 30 30 29 29 28 28 27 27 27 26 25 23 22 20 17 16 15 15 16 15 15 14 14 15 16 17 17 17 16 15 14 13 12 12 11 11 12 12 12 13 13 14 14 14 14 14 13 13 13 14 14 14 14 14 15 15 16 17 18 18 18 19 19 19
30 30 30 30 30 30 30 29 28 28 28 27 26 26 25 23 22 20 18 16 15 15 16 16 15 14 14 14 15 16 17 16 16 15 14 13 12 11 11 11 11 11 12 12 13 13 13 14 14 14 14 14 14 14 14 14 14 15 15 16 16 17 17 17 17 17 18 18 19
30 30 30 30 30 30 29 29 28 28 27 27 26 25 23 22 20 18 17 16 15 16 16 15 14 13 13 14 15 16 16 15 15 14 13 12 11 10 10 10 10 11 12 12 13 13 13 14 14 14 14 14 14 14 14 14 15 15 16 16 16 16 16 16 16 17 17 18 19
31 30 30 30 30 29 29 29 28 28 27 26 25 24 22 20 19 17 16 16 16 16 16 15 13 12 12 13 14 15 15 14 14 13 12 11 10 10 9 10 10 11 12 12 13 13 13 14 14 14 14 14 14 14 14 14 14 15 15 15 15 15 15 15 16 17 18 19 20
31 31 30 30 30 29 29 29 29 28 27 26 25 23 21 19 18 17 16 16 16 16 15 14 13 12 12 13 13 13 13 13 13 13 12 11 10 9 9 9 10 11 12 13 13 14 14 14 14 14 14 14 14 13 13 13 13 14 14 14 14 14 14 15 16 17 18 19 20
32 31 31 30 30 30 30 29 29 28 27 26 24 23 21 19 18 17 17 17 17 16 15 14 13 12 12 12 12 12 12 12 12 12 11 10 9 9 9 10 10 11 12 13 14 14 15 14 14 14 14 13 13 13 13 13 12 12 13 13 13 14 14 16 17 18 19 20 20
33 32 32 31 31 31 30 30 29 28 27 26 24 23 21 20 19 18 18 18 17 17 15 14 13 12 11 11 11 11 11 12 11 11 10 10 9 9 10 10 11 12 13 14 15 15 15 15 15 15 14 14 13 13 13 12 12 12 12 13 13 14 15 17 18 19 19 20 20
34 33 33 32 32 31 30 29 29 27 26 25 24 23 22 21 20 19 19 19 18 17 16 14 13 12 11 10 10 10 11 11 11 10 10 10 10 10 10 11 11 12 13 14 15 16 16 16 16 16 15 14 14 14 13 13 13 13 13 14 15 15 17 18 19 19 20 20 20
34 34 33 32 31 30 30 29 28 26 25 24 24 23 23 22 21 20 20 19 18 17 16 15 13 12 10 10 10 10 10 10 10 10 11 11 11 11 11 11 12 12 13 14 15 16 16 17 16 16 16 15 15 15 15 14 14 14 15 15 16 17 17 18 19 20 20 20 21
35 34 34 33 32 30 29 28 26 25 24 24 23 23 23 22 21 20 19 19 18 17 16 15 13 11 10 10 9 9 10 10 10 11 11 12 12 12 12 12 12 13 14 15 15 16 17 17 17 17 16 16 16 16 16 15 15 16 16 16 17 18 18 19 20 20 20 20 21
36 35 35 33 32 30 28 26 25 24 23 23 22 22 22 22 21 20 19 18 18 17 17 15 13 12 10 9 9 9 9 10 11 11 12 13 13 13 12 12 12 13 14 15 16 16 17 17 17 17 17 17 17 16 16 16 16 17 17 17 18 18 19 20 20 20 20 20 21
37 36 35 33 31 29 27 25 24 24 23 22 22 22 22 22 21 20 19 18 18 18 17 16 14 12 10 10 9 9 10 11 12 13 13 14 14 13 13 13 13 14 14 15 16 17 17 17 18 18 18 17 17 17 17 17 17 18 18 18 19 19 19 20 20 20 20 21 22
37 35 34 32 30 28 26 25 24 24 24 23 22 21 22 22 22 20 19 18 18 18 18 16 14 12 11 10 10 10 11 13 14 14 15 15 15 14 14 14 14 14 15 16 16 17 17 18 18 18 18 18 18 17 17 17 18 18 19 19 19 19 20 20 20 21 21 21 22
37 35 32 31 29 28 27 26 25 25 24 23 21 21 22 23 22 21 20 20 20 20 19 17 14 12 11 11 11 12 13 15 16 16 16 16 16 16 15 15 15 15 16 16 17 17 18 18 18 18 18 18 18 18 18 18 18 19 19 19 19 20 20 20 21 21 21 22 23
36 34 32 31 30 29 28 28 27 25 24 22 21 21 22 23 23 22 22 21 21 20 19 17 14 13 12 12 12 14 15 17 17 17 16 16 17 17 17 16 16 16 17 17 18 18 18 19 19 19 19 18 18 18 18 18 19 19 19 20 20 20 20 20 21 21 21 22 23
35 33 32 31 31 31 30 29 27 25 23 22 21 21 22 23 23 23 23 22 21 20 19 17 15 13 13 13 14 15 17 18 18 18 17 17 18 18 18 17 17 17 17 18 19 19 19 19 19 19 19 19 19 19 19 19 19 20 20 20 20 20 20 21 21 21 21 22 23
34 33 33 33 32 32 31 29 27 25 24 23 22 22 23 23 24 24 23 22 21 20 19 17 15 14 14 14 15 17 18 19 19 19 18 18 18 19 19 18 18 18 18 19 19 20 20 20 20 19 19 19 19 19 19 20 20 20 20 20 20 20 20 21 21 21 21 22 23
35 34 34 33 33 33 32 30 28 26 25 25 24 24 24 24 24 24 24 22 21 20 19 17 16 15 15 16 17 18 19 20 20 20 19 19 19 19 19 19 19 19 19 20 20 21 21 21 20 20 20 20 20 20 20 20 20 21 21 21 20 20 20 21 21 21 21 22 23
35 35 35 34 33 33 31 30 28 27 27 27 27 27 26 25 25 24 24 22 21 20 19 18 17 17 17 17 18 19 20 21 21 21 20 20 20 20 20 20 19 19 20 20 21 21 21 21 21 21 21 20 20 20 20 20 21 21 21 21 21 21 21 21 21 21 21 22 23
36 35 35 34 33 32 31 30 28 28 28 28 29 28 26 25 25 24 24 22 21 20 19 19 18 18 18 18 19 20 21 22 22 22 21 21 21 21 20 20 20 20 20 21 22 22 22 22 22 22 21 21 21 21 21 21 21 21 21 21 21 21 21 21 21 21 21 22 23
36 35 35 34 33 32 31 30 29 28 28 29 30 29 27 25 25 24 24 23 22 21 20 19 18 18 18 19 19 20 22 22 23 23 22 22 22 21 21 21 21 21 21 22 23 23 23 23 23 22 22 22 21 21 21 21 21 21 21 21 21 21 21 21 22 22 22 22 23
35 35 34 34 33 32 31 30 29 28 29 31 30 29 27 25 25 24 23 22 21 20 19 19 19 19 19 19 20 21 22 23 23 23 23 22 22 21 21 21 21 22 22 23 24 24 24 24 23 23 23 22 22 22 22 21 21 21 21 21 21 21 21 22 22 22 22 22 23
34 34 33 33 33 32 31 30 29 30 31 32 30 28 27 25 25 24 23 21 21 20 20 20 20 19 19 19 20 22 23 24 24 23 22 22 21 21 21 22 22 23 23 24 24 25 25 24 24 24 23 23 23 22 22 22 22 22 22 22 21 21 21 22 22 22 22 22 23
33 32 32 32 32 32 31 31 31 32 32 31 29 28 26 25 24 23 22 21 21 21 21 21 20 19 19 19 21 22 24 24 24 23 22 21 21 21 21 22 23 23 24 25 25 26 25 25 25 24 24 23 23 23 22 22 22 22 22 22 21 21 21 21 22 22 22 22 22
32 31 31 31 32 32 32 32 32 32 31 30 28 27 25 24 24 23 22 22 22 22 22 21 20 19 19 20 21 23 24 24 24 22 21 20 20 21 22 23 23 24 25 25 26 26 26 25 25 25 24 24 23 23 23 22 22 22 22 22 21 21 21 21 21 22 22 22 22
31 31 31 31 32 32 32 32 32 31 30 29 27 26 25 24 24 23 23 23 23 22 22 20 19 19 19 21 22 24 24 24 23 21 20 20 20 21 22 24 24 25 25 26 26 26 26 26 25 25 25 24 24 23 23 22 22 22 22 22 21 21 21 21 21 21 22 22 22
30 30 31 31 32 32 32 31 30 30 29 28 27 26 25 24 24 23 23 23 23 22 21 20 19 19 20 21 23 24 24 23 22 20 19 19 20 22 23 24 25 26 26 26 26 26 26 25 25 25 25 25 24 23 23 23 23 22 22 21 21 21 21 21 21 22 22 22 21
30 30 30 31 31 31 30 29 29 29 28 28 27 26 25 24 23 23 23 23 23 22 20 19 18 19 20 22 23 24 24 22 21 20 19 20 21 23 24 25 26 26 26 26 26 25 25 25 25 25 25 25 24 23 23 23 22 22 22 22 21 21 21 21 21 22 22 22 21
29 29 30 30 30 29 28 28 28 28 28 27 26 25 24 24 24 24 24 23 22 20 19 18 18 19 21 22 24 24 24 23 21 21 21 21 22 23 25 26 27 27 27 26 26 25 25 24 24 24 24 24 24 23 23 22 22 22 22 22 22 22 21 21 22 22 22 22 21
28 28 28 28 27 27 27 27 27 27 27 26 25 24 24 24 24 24 23 22 21 19 18 18 19 20 21 23 24 25 24 23 22 22 22 23 24 25 26 27 28 28 27 26 26 25 24 24 24 24 24 24 23 23 22 22 22 22 22 22 22 22 21 21 22 22 22 22 20
26 26 26 25 25 25 25 26 26 26 25 25 24 24 24 24 24 24 23 21 20 18 18 18 19 21 22 24 25 25 25 24 23 23 24 25 26 27 28 28 29 28 27 26 25 25 24 24 24 24 23 23 23 22 22 22 22 22 22 22 22 22 22 22 22 22 22 21 20
24 24 23 23 23 24 24 25 25 25 24 24 23 23 23 23 24 23 22 20 19 18 18 19 20 22 23 24 25 25 24 24 23 24 24 26 27 28 28 29 29 28 27 26 25 24 24 23 23 23 23 23 23 22 22 22 22 23 23 23 22 22 22 22 21 21 21 21 20
Wind_Direction
224 225 227 229 231 232 233 233 233 233 233 233 233 232 229 229 241 263 279 286 285 283 282 284 287 291 294 295 297 301 305 308 310 309 307 305 302 300 300 302 304 307 310 312 313 314 314 314 314 316 317 320 322 324 325 326 327 327 328 329 331 332 334 334 334 335 335 335 335
225 227 228 229 230 231 232 232 232 232 232 233 234 233 234 240 255 271 280 282 282 281 281 284 287 288 288 288 292 298 302 306 307 307 304 301 299 298 299 302 305 308 310 312 313 313 313 313 313 315 317 319 321 323 324 325 326 326 325 326 328 329 330 331 332 333 333 333 333
228 228 229 229 229 230 230 231 232 233 234 235 236 237 241 250 262 273 279 280 280 280 281 283 285 284 281 282 288 295 301 304 305 304 301 299 297 297 299 303 306 309 311 312 313 313 313 313 313 315 317 319 322 323 324 324 324 324 323 323 324 326 327 328 329 329 330 330 329
229 229 229 229 230 230 232 233 235 236 238 239 240 241 245 252 261 270 277 279 279 280 281 282 281 277 274 277 286 294 300 302 303 301 298 296 295 297 300 304 307 310 312 313 313 313 313 314 315 317 319 321 322 323 323 322 322 321 321 321 322 323 324 325 325 326 327 327 327
230 230 230 231 231 233 235 237 238 240 242 243 242 243 246 251 258 267 275 280 281 281 281 279 273 268 268 275 285 294 299 300 300 298 296 294 294 296 300 305 308 311 313 313 314 313 314 315 317 319 320 322 322 322 321 320 319 319 318 319 320 320 321 321 322 323 324 325 325
231 230 231 231 232 234 236 238 240 242 243 244 243 244 246 251 257 265 274 280 284 284 280 273 264 261 264 275 286 294 297 298 296 295 293 292 293 296 301 306 310 313 315 315 315 315 316 317 319 320 321 321 321 319 317 317 316 315 314 314 315 316 317 318 319 321 323 324 325
233 232 231 231 232 234 236 238 240 241 242 243 244 245 247 252 258 265 273 280 283 282 275 265 258 257 264 276 286 292 294 294 293 291 290 290 292 296 301 307 313 316 317 317 317 317 317 318 319 320 319 318 316 314 312 311 310 309 309 309 310 312 315 316 318 321 322 324 325
233 233 233 233 233 235 237 239 240 241 242 243 244 245 248 252 258 265 272 278 280 277 269 259 254 256 265 276 285 289 291 290 289 289 288 289 291 297 303 310 316 319 319 319 318 318 318 319 319 319 317 314 311 308 306 305 304 304 305 307 308 311 313 316 318 321 323 324 325
233 233 233 234 235 237 238 240 241 242 243 243 245 246 249 253 259 265 271 275 275 270 262 254 252 257 266 276 282 286 287 287 287 286 285 287 292 299 306 313 318 321 321 321 320 319 319 319 319 318 315 312 308 304 302 301 301 302 304 306 308 311 313 316 319 321 323 325 326
233 233 234 234 236 237 238 239 241 242 243 244 245 247 249 253 259 265 270 272 268 261 254 251 252 257 266 274 280 283 284 284 283 282 283 287 294 302 309 316 320 322 323 322 322 321 320 320 319 317 315 312 308 304 301 300 300 301 303 305 308 311 314 316 319 322 323 325 326
236 235 235 236 236 237 237 238 239 240 241 242 244 246 249 254 259 264 267 264 258 252 249 249 252 257 265 273 279 282 282 281 280 280 283 288 296 304 312 318 322 324 325 324 324 323 322 322 320 318 315 312 309 305 302 300 300 301 302 305 308 311 314 317 320 322 324 325 325
237 237 237 237 237 237 237 236 238 239 240 241 242 245 249 254 259 262 261 256 252 249 248 249 251 257 265 273 278 280 280 279 278 280 284 290 298 305 313 319 324 326 327 327 326 326 324 323 322 320 317 314 311 307 303 301 300 301 303 306 309 312 315 318 320 322 324 324 324
237 236 236 236 236 236 236 236 237 238 239 240 242 245 250 255 259 259 256 253 250 249 248 249 252 257 265 272 277 278 278 278 278 281 286 291 297 304 312 319 325 328 329 329 329 329 327 325 324 323 321 318 314 311 307 304 303 303 305 307 310 313 316 318 320 321 322 323 322
236 236 235 235 235 235 235 236 237 238 239 241 244 249 253 256 257 256 254 252 251 250 250 250 253 258 265 272 275 277 278 278 280 283 286 289 294 301 309 317 324 328 330 331 332 331 329 327 325 324 322 320 318 315 312 309 308 308 309 310 312 314 315 317 319 320 320 320 319
236 236 236 235 235 235 235 236 237 239 241 244 248 252 254 255 255 254 254 253 252 251 250 250 253 259 266 271 275 278 279 280 282 283 284 286 290 297 305 314 322 327 329 331 331 331 329 327 325 323 322 322 320 319 317 314 312 311 311 311 312 313 315 316 318 318 318 317 316
236 236 236 235 235 235 236 237 239 241 243 247 251 253 254 254 254 254 253 253 252 251 249 250 254 259 266 271 276 280 282 282 282 281 281 282 287 294 303 311 319 324 327 328 329 328 328 326 325 323 322 322 322 321 320 318 315 313 311 311 312 313 314 315 316 316 315 314 314
236 236 236 235 235 236 237 239 241 243 246 249 252 253 253 253 253 253 253 253 251 249 248 249 253 259 266 272 279 283 285 283 281 280 279 280 285 291 300 308 315 321 324 325 325 325 325 324 323 322 322 322 322 322 321 319 317 315 313 312 312 313 314 314 314 313 312 312 313
237 236 236 236 236 237 239 241 243 245 248 251 253 253 253 253 253 253 253 252 250 247 245 248 253 259 267 275 282 286 287 285 283 280 280 281 284 290 298 305 312 317 320 322 322 322 322 321 321 320 320 320 320 320 320 319 317 316 315 314 313 313 313 312 311 310 309 310 312
237 237 237 237 237 239 240 242 244 247 249 251 253 253 253 253 253 252 251 250 248 245 244 246 251 259 268 277 285 289 290 288 285 283 281 282 285 290 296 303 309 313 316 317 318 319 319 319 318 317 317 317 317 317 317 317 316 316 315 314 313 312 311 309 308 308 308 309 311
238 237 237 237 237 238 240 243 245 247 249 250 252 253 254 254 254 252 250 248 246 244 243 245 250 258 268 278 286 291 293 292 289 285 283 282 284 288 294 300 305 308 310 312 314 316 316 316 316 315 314 313 313 314 314 314 314 314 314 314 312 310 309 307 306 306 306 307 309
237 236 236 236 237 237 238 241 245 248 250 251 252 253 255 255 254 253 251 249 246 244 243 244 249 257 267 276 286 292 295 295 292 288 283 281 283 287 291 296 299 302 305 308 311 313 314 314 313 312 311 310 310 310 311 310 311 311 312 312 310 308 307 305 304 303 304 306 307
236 234 234 234 236 236 237 238 242 245 247 249 252 255 257 257 255 253 251 249 246 243 243 244 249 257 266 276 285 293 297 298 295 289 284 281 281 284 287 291 294 297 300 304 307 309 311 311 311 310 309 308 308 308 308 308 308 309 309 309 308 306 305 303 302 302 302 304 306
236 233 232 232 234 235 235 236 237 239 241 243 248 254 257 258 256 253 250 247 245 243 242 244 248 256 265 275 284 292 296 298 296 291 285 280 279 280 283 286 289 292 296 299 303 305 307 307 308 308 307 307 306 306 305 305 305 305 306 307 306 305 303 302 300 300 301 303 306
236 233 231 231 232 233 234 234 234 235 236 239 245 253 259 259 257 253 248 246 244 242 242 243 248 255 264 273 281 289 294 297 296 292 285 280 277 277 279 281 284 288 291 295 298 301 303 304 304 305 305 305 304 303 302 301 301 302 303 304 305 304 302 300 299 298 299 302 305
236 234 232 231 231 232 232 232 233 233 236 240 247 257 262 260 257 252 247 245 243 242 241 243 247 254 262 270 279 286 292 296 295 291 285 278 275 274 275 278 281 284 288 291 294 297 299 301 302 302 303 303 302 301 299 298 298 299 301 303 303 303 302 300 298 297 298 300 304
236 234 233 232 231 231 231 231 231 233 237 243 253 259 260 258 253 249 246 244 243 241 241 243 247 254 261 268 276 284 290 294 294 291 284 278 274 272 272 275 278 281 285 289 292 294 296 297 299 300 300 300 299 297 296 295 295 297 299 301 302 302 301 299 297 295 296 299 304
237 235 234 233 233 232 231 231 231 233 238 246 255 261 260 255 250 246 244 243 242 241 241 243 248 253 260 267 275 282 288 292 293 290 284 277 273 270 270 272 275 279 283 287 290 292 293 294 295 297 297 297 296 295 293 292 293 295 297 299 300 301 301 298 295 292 293 298 304
238 236 235 234 233 233 232 231 230 232 239 248 258 262 260 253 248 245 243 242 241 240 241 244 248 254 260 267 274 281 287 291 291 288 283 277 272 269 269 270 273 277 282 286 289 291 291 292 292 293 294 294 294 293 291 291 292 294 296 298 299 300 299 296 291 289 291 297 304
239 237 235 235 234 234 233 231 231 234 241 250 257 259 255 249 245 243 242 240 239 239 241 245 250 254 260 267 276 283 288 291 290 287 282 276 271 268 268 269 272 276 281 286 288 289 289 289 289 290 292 292 292 291 290 290 291 293 295 297 298 298 297 293 289 288 291 297 303
240 238 237 236 235 235 234 233 234 238 244 250 253 252 248 245 242 241 240 239 239 241 244 247 251 255 262 270 278 285 289 291 290 286 281 275 270 268 268 269 272 276 281 285 288 288 288 287 287 288 289 290 290 289 289 289 290 292 294 296 297 297 295 290 288 288 292 297 303
241 239 238 237 236 235 235 235 237 241 245 247 247 245 243 242 241 240 239 239 240 243 246 248 251 256 263 272 280 286 289 291 289 285 280 274 270 268 268 270 272 276 281 285 287 287 286 286 286 286 287 288 288 287 287 288 289 292 294 296 297 296 294 290 288 289 292 297 303
242 241 239 237 236 236 236 237 239 241 243 242 241 240 240 241 241 240 240 241 242 243 244 247 251 257 266 275 283 288 290 291 289 285 280 275 271 269 269 270 273 277 281 285 287 286 285 284 284 285 285 286 286 286 286 287 289 292 294 295 296 295 294 291 290 290 292 297 302
243 241 239 237 236 236 236 237 238 238 238 237 237 238 240 241 240 240 240 241 241 241 243 246 251 259 269 279 285 289 290 290 289 285 280 274 271 270 270 271 273 278 282 285 286 285 284 283 283 283 283 284 284 284 285 287 289 291 293 294 294 294 293 292 290 290 292 297 302
244 241 238 236 235 235 236 236 236 235 234 233 235 237 239 239 239 239 239 240 240 241 243 247 253 263 273 282 287 290 292 291 289 284 278 273 270 270 270 272 275 280 284 286 285 284 282 281 281 281 282 282 282 283 284 286 288 290 292 292 292 292 292 291 290 290 292 296 302
244 240 237 235 234 235 235 235 234 233 232 232 234 237 238 239 240 240 240 239 239 241 244 248 256 267 277 285 290 293 294 293 290 284 277 273 271 270 271 273 278 282 285 285 283 282 280 279 279 280 280 280 281 282 283 285 287 289 290 290 290 290 290 290 288 289 291 296 301
244 240 236 234 234 234 235 234 233 231 231 233 235 237 238 239 240 240 239 239 239 241 245 252 262 273 283 289 293 295 295 293 288 282 277 274 273 273 274 276 280 283 284 283 281 279 277 276 277 278 278 279 279 280 282 284 286 288 289 288 288 289 289 289 287 288 291 295 300
244 240 236 235 234 234 234 233 232 231 232 234 237 238 239 240 239 238 237 238 239 243 249 259 270 281 288 293 296 297 295 291 284 278 274 273 274 275 277 279 281 283 283 281 279 276 275 274 275 276 277 277 279 280 281 283 285 286 286 287 288 289 288 287 286 287 290 294 298
243 240 237 235 235 235 234 232 232 232 234 236 238 239 240 239 237 236 236 238 241 247 256 267 278 286 293 297 299 298 295 289 281 275 273 273 275 278 280 282 283 284 283 281 278 276 275 274 274 275 276 277 278 279 280 281 282 284 285 287 288 288 286 285 285 287 290 293 296
243 239 237 235 235 234 233 232 233 234 236 238 239 240 239 237 236 235 237 240 245 253 263 274 283 291 297 300 301 299 294 287 280 275 274 276 280 283 285 286 286 285 284 282 280 278 276 275 275 275 275 276 277 278 279 280 281 282 284 285 286 285 284 283 284 286 289 291 292
242 239 236 235 234 233 233 233 235 236 238 240 240 239 237 235 235 236 239 244 250 259 269 279 288 295 300 302 302 299 294 287 280 277 277 281 285 288 288 288 287 286 285 283 281 279 278 276 276 275 275 276 276 277 278 279 280 281 283 283 283 283 282 282 283 285 286 288 289
242 238 235 234 233 233 233 234 236 238 240 240 239 238 236 235 236 238 242 247 254 263 273 282 291 298 302 303 302 299 293 287 281 280 281 285 288 289 290 289 288 287 286 284 282 281 279 277 276 275 275 276 276 277 278 278 279 280 281 282 281 281 280 281 282 282 283 285 286